Weather History for Madison, WI

Change the Weather History Date:

Thursday, January 24, 2013

  Actual Average Record
Temperature  
Mean Temperature 8 °F 19 °F  
Max Temperature 17 °F 27 °F 55 °F (1981)
Min Temperature -1 °F 11 °F -24 °F (1936)
Degree Days  
Heating Degree Days 57 46  
Month to date heating degree days 1066 1113  
Since 1 July heating degree days 3661 3992  
Cooling Degree Days 0 0  
Month to date cooling degree days 0 0  
Year to date cooling degree days 0 0  
Moisture  
Dew Point -2 °F    
Average Humidity 65    
Maximum Humidity 72    
Minimum Humidity 58    
Precipitation  
Precipitation 0.00 in 0.04 in 1.42 in (1938)
Month to date precipitation 0.30 0.95  
Year to date precipitation 0.30 0.95  
Snow  
Snow 0.00 in 0.40 in 6.00 in (1938)
Month to date snowfall 1.4 10.0  
Since 1 July snowfall 24.9 27.6  
Snow Depth 1.00 in    
Sea Level Pressure  
Sea Level Pressure 30.56 in    
Wind  
Wind Speed 7 mph (NE)    
Max Wind Speed 18 mph    
Max Gust Speed 24 mph    
Visibility 10 miles    
Events      
T = Trace of Precipitation, MM = Missing Value Source: NWS Daily Summary

Daily Weather History Graph

Daily Weather History Graph

Search for Another Location

Airport:

Trip Planner

Search our weather history database for the weather conditions in past years. The results will help you decide how hot, cold, wet, or windy it might be!

Date:

Astronomy

Jan. 24, 2013 Rise Set
Actual Time 7:20 AM CST 4:59 PM CST
Civil Twilight 6:49 AM CST 5:30 PM CST
Nautical Twilight 6:14 AM CST 6:04 PM CST
Astronomical Twilight 5:41 AM CST 6:38 PM CST
Moon 3:00 PM CST 5:18 AM CST
Length of Visible Light 10h 41m
Length of Day
9h 39m
Waxing Gibbous, 94% of the Moon is Illuminated
Jan 24
Waxing Gibbous
Jan 26
Full
Feb 3
Last Quarter
Feb 10
New
Feb 17
First Quarter

Hourly Weather History & Observations

Time (CST) Temp. Windchill Dew Point Humidity Pressure Visibility Wind Dir Wind Speed Gust Speed Precip Events Conditions
12:53 AM 1.9 °F -16.2 °F -8.0 °F 63% 30.51 in 10.0 mi NNW 13.8 mph - N/A   Clear
1:53 AM 1.9 °F -11.8 °F -8.0 °F 63% 30.55 in 10.0 mi NNW 8.1 mph 16.1 mph N/A   Clear
2:53 AM 1.0 °F -11.7 °F -8.0 °F 66% 30.57 in 10.0 mi NW 6.9 mph - N/A   Clear
3:53 AM 1.0 °F -14.9 °F -8.0 °F 66% 30.60 in 10.0 mi NNW 10.4 mph - N/A   Clear
4:53 AM -0.0 °F -14.2 °F -8.0 °F 69% 30.62 in 10.0 mi NNW 8.1 mph - N/A   Clear
5:53 AM -0.0 °F -14.2 °F -9.0 °F 66% 30.64 in 10.0 mi NNW 8.1 mph - N/A   Clear
6:53 AM -0.0 °F -14.2 °F -9.0 °F 66% 30.66 in 10.0 mi North 8.1 mph - N/A   Clear
7:53 AM -0.0 °F -14.2 °F -8.0 °F 69% 30.68 in 10.0 mi North 8.1 mph - N/A   Clear
8:53 AM 1.9 °F -10.6 °F -7.1 °F 66% 30.70 in 10.0 mi North 6.9 mph - N/A   Clear
9:53 AM 3.9 °F -9.4 °F -6.0 °F 64% 30.70 in 10.0 mi NNE 8.1 mph - N/A   Clear
10:53 AM 6.1 °F -4.3 °F -4.0 °F 63% 30.69 in 10.0 mi NNE 5.8 mph - N/A   Clear
11:53 AM 8.1 °F 1.4 °F -2.9 °F 61% 30.66 in 10.0 mi NNE 3.5 mph - N/A   Clear
12:53 PM 10.0 °F - -2.0 °F 58% 30.63 in 10.0 mi Calm Calm - N/A   Clear
1:53 PM 10.9 °F - -2.0 °F 56% 30.60 in 10.0 mi Calm Calm - N/A   Clear
2:53 PM 12.0 °F 5.9 °F -0.9 °F 56% 30.59 in 10.0 mi ENE 3.5 mph - N/A   Clear
3:53 PM 12.0 °F 1.5 °F -0.9 °F 56% 30.56 in 10.0 mi ESE 6.9 mph - N/A   Clear
4:53 PM 12.0 °F 4.1 °F -0.0 °F 59% 30.55 in 10.0 mi ENE 4.6 mph - N/A   Overcast
5:53 PM 12.0 °F 0.5 °F 1.0 °F 61% 30.53 in 10.0 mi East 8.1 mph - N/A   Overcast
6:53 PM 12.9 °F 1.6 °F 1.9 °F 62% 30.48 in 10.0 mi ESE 8.1 mph - N/A   Overcast
7:53 PM 12.9 °F 5.2 °F 1.9 °F 62% 30.47 in 10.0 mi ESE 4.6 mph - N/A   Overcast
8:53 PM 14.0 °F 5.1 °F 3.0 °F 62% 30.45 in 10.0 mi ESE 5.8 mph - N/A   Mostly Cloudy
9:53 PM 15.1 °F 4.2 °F 5.0 °F 64% 30.40 in 10.0 mi SE 8.1 mph - N/A   Mostly Cloudy
10:53 PM 16.0 °F 8.8 °F 7.0 °F 68% 30.40 in 10.0 mi ESE 4.6 mph - N/A   Overcast
11:53 PM 17.1 °F 7.6 °F 8.1 °F 68% 30.36 in 10.0 mi SE 6.9 mph - N/A   Overcast